Location: Friaudour
(46.0460°N, 1.2873°E)
Time: 10:58:05
(UTC+00:00)

Landsat 5 - Pass Details

Date: 14 July 2020
Orbit: 528 x 654 km, 98.2° (Epoch: 05 August)

Event Time Altitude Azimuth Distance (km) Brightness Sun altitude
Rises 03:07:19 0° 156° (SSE) 2,718 6.6 -10.2°
Reaches altitude 10° 03:09:28 10° 153° (SSE) 1,813 5.8 -10.0°
Maximum altitude 03:13:19 61° 74° (ENE) 614 3.8 -9.5°
Drops below altitude 10° 03:17:07 10° 353° (N) 1,791 6.5 -9.1°
Sets 03:19:14 0° 350° (N) 2,682 7.4 -8.8°
